Location: Alexandria
(38.8050°N, 77.0470°W)
Time: 04:33:35
(UTC-05:00)

Vanguard 2 Rocket - Visible Passes

Search period start: 20 November 2017 00:00
Search period end: 30 November 2017 00:00
Orbit: 556 x 3326 km, 32.9° (Epoch: 19 November)

Date Brightness Start Highest point End Pass type
(mag) Time Alt. Az. Time Alt. Az. Time Alt. Az.
20 Nov 9.4 02:19:00 34° ESE 02:19:00 34° ESE 02:24:01 10° E visible
20 Nov 8.2 04:24:49 43° WSW 04:28:59 63° S 04:36:38 10° ESE visible
21 Nov 10.2 01:22:55 16° E 01:22:55 16° E 01:24:33 10° E visible
21 Nov 8.5 03:28:43 63° S 03:28:48 63° S 03:37:48 10° E visible
21 Nov 8.1 05:34:32 18° W 05:43:14 55° SSW 05:49:43 10° ESE visible
22 Nov 9.2 02:32:36 43° ESE 02:32:36 43° ESE 02:38:45 10° E visible
22 Nov 8.3 04:38:24 38° WSW 04:43:29 63° S 04:51:11 10° ESE visible
23 Nov 10.0 01:36:28 22° E 01:36:28 22° E 01:39:22 10° E visible
23 Nov 8.5 03:42:16 65° SSW 03:43:18 67° S 03:52:25 10° ESE visible
23 Nov 8.4 05:48:05 15° W 05:57:31 46° SSW 06:04:01 10° SE visible
24 Nov 9.0 02:46:07 52° ESE 02:46:07 52° ESE 02:53:23 10° E visible
24 Nov 8.4 04:51:56 33° WSW 04:57:52 58° SSW 05:05:38 10° ESE visible
24 Nov 10.9 20:57:44 10° S 20:58:01 10° SSE 20:58:01 10° SSE visible
25 Nov 9.8 01:49:58 28° E 01:49:58 28° E 01:54:02 10° E visible
25 Nov 8.5 03:55:47 60° SW 03:57:45 66° S 04:06:57 10° ESE visible
25 Nov 8.7 06:01:35 11° W 06:11:35 37° SSW 06:18:01 10° SSE visible
25 Nov 10.9 22:06:44 10° SSW 22:07:40 12° SSW 22:07:40 12° SSW visible
26 Nov 10.5 00:53:49 12° E 00:53:49 12° E 00:54:22 10° E visible
26 Nov 8.9 02:59:37 60° SE 02:59:37 60° SE 03:07:57 10° ESE visible
26 Nov 8.6 05:05:26 28° W 05:12:06 50° SSW 05:19:54 10° SE visible
26 Nov 10.7 21:07:52 10° S 21:11:32 16° S 21:11:32 16° S visible
26 Nov11.023:57:39E23:57:39E23:17:21SWvisible
27 Nov 9.6 02:03:28 35° ESE 02:03:28 35° ESE 02:08:39 10° E visible
27 Nov 8.6 04:09:17 52° WSW 04:12:07 61° SSW 04:21:22 10° ESE visible
27 Nov 9.1 06:15:54 10° W 06:25:23 27° SW 06:31:35 10° SSE visible
27 Nov 10.6 20:10:33 10° S 20:15:27 16° SSE 20:15:27 16° SSE visible
27 Nov 10.8 22:19:13 10° SSW 22:21:16 15° SSW 22:21:16 15° SSW visible
28 Nov 10.4 01:07:19 16° E 01:07:19 16° E 01:09:00 10° E visible
28 Nov 8.8 03:13:08 64° SSE 03:13:08 64° SSE 03:22:28 10° ESE visible
28 Nov 8.9 05:18:56 24° W 05:26:05 40° SSW 05:33:52 10° SSE visible
28 Nov 10.7 19:18:34 10° SE 19:19:24 10° SE 19:19:24 10° SE visible
28 Nov 10.5 21:19:39 10° SSW 21:25:13 22° S 21:25:13 22° S visible
29 Nov10.900:11:11E00:11:11E23:31:02WSWvisible
29 Nov 9.5 02:17:00 41° ESE 02:17:00 41° ESE 02:23:12 10° ESE visible
29 Nov 8.8 04:22:49 45° WSW 04:26:17 52° SSW 04:35:35 10° SE visible
29 Nov 9.5 06:31:32 10° W 06:38:56 19° SW 06:44:20 10° S visible
29 Nov 10.3 20:21:06 10° S 20:29:11 24° SSE 20:29:11 24° SSE visible
29 Nov 10.8 22:32:24 10° SW 22:35:00 16° SW 22:35:00 16° SW visible
